User: anonymous   Login
Location: Unspecified
(0.0000°N, 0.0000°E)
Time: 21:15:46
(UTC+00:00)
Language:

PERSEUS M2 - Orbit

View from above orbital plane
View from above orbital plane
View from above satellite
View from above satellite

Ground track
Ground track

The orbit data is extracted from the following two-line orbital elements,

1 40037U 14033AD  17141.80230420 +.00000172 +00000-0 +25803-4 0  9990
2 40037 097.9142 050.7027 0015363 036.7534 323.4732 14.86215909157894
Epoch (UTC): 21 May 2017 19:15:19
Eccentricity: 0.0015363
inclination: 97.9142°
perigee height: 599 km
apogee height: 620 km
right ascension of ascending node: 50.7027°
argument of perigee: 36.7534°
revolutions per day: 14.86215909
mean anomaly at epoch: 323.4732°
orbit number at epoch: 15789

The dashed part of the orbit path shows where the satellite is in the earth's shadow,  

DLR